User: anonymous   Login
Location: Unspecified
(0.0000°N, 0.0000°E)
Time: 07:51:10
(UTC+00:00)
Language:

USA 198 - Orbit

View from above orbital plane
View from above orbital plane
View from above satellite
View from above satellite

Ground track
Ground track

The orbit data is extracted from the following two-line orbital elements,

1 32378U 07060A   21081.54899631 0.00000000  00000-0  00000-0 0    06
2 32378  63.3828  20.4861 7426773 270.5791  13.3723  2.00665004    05
Epoch (UTC): 22 March 2021 13:10:33
Eccentricity: 0.7426773
inclination: 63.3828°
perigee height: 454 km
apogee height: 39892 km
right ascension of ascending node: 20.4861°
argument of perigee: 270.5791°
revolutions per day: 2.00665004
mean anomaly at epoch: 13.3723°
orbit number at epoch: 0

The dashed part of the orbit path shows where the satellite is in the earth's shadow,  

DLR